Header for Extended Forecast Station List Page

Search by: ID | Name | Date | Parm | Value | Avg | % Avg
Sort by: ID | Name | Date | Parm | Value | Avg | % Avg

Enter search or view all records.

Click on id for station plot
#IDNameDateParmValueAvg% Avg
0LYDM8KOOTENAI-LIBBY DAM10-20-2014INFLOW (KAF)891892100
1LEOI1KOOTENAI-AT LEONIA10-20-2014DISCHARGE (KAF)28161538183
2BFEI1KOOTENAI-AT BONNERS FERRY10-20-2014STAGE (FT)MMM
3FCFM8NF FLATHEAD-NEAR COLUMBIA FALLS10-20-2014DISCHARGE (KAF)17719094
4WGCM8MF FLATHEAD-NEAR WEST GLACIER10-20-2014DISCHARGE (KAF)10416762
5HHWM8SF FLATHEAD-HUNGRY HORSE DAM10-20-2014INFLOW (KAF)14924461
6CFMM8FLATHEAD-AT COLUMBIA FALLS10-20-2014DISCHARGE (KAF)891117776
7DLGM8CLARK FORK-AT DEER LODGE10-20-2014DISCHARGE (KAF)516282
8DRMM8CLARK FORK-NR DRUMMOND10-20-2014DISCHARGE (KAF)127MM
9RCCM8ROCK CREEK-NEAR CLINTON10-20-2014DISCHARGE (KAF)464995
10BONM8BLACKFOOT-NEAR BONNER10-20-2014DISCHARGE (KAF)11313484
11ABOM8CLARK FORK-ABOVE MISSOULA10-20-2014DISCHARGE (KAF)29734287
12BITM8BITTERROOT-NEAR MISSOULA10-20-2014DISCHARGE (KAF)16722574
13BELM8CLARK FORK-BELOW MISSOULA10-20-2014DISCHARGE (KAF)46557181
14STRM8ST. REGIS-NEAR ST. REGIS10-20-2014DISCHARGE (KAF)213857
15SRGM8CLARK FORK-AT ST REGIS10-20-2014DISCHARGE (KAF)61674782
16KERM8FLATHEAD-KERR DAM10-20-2014INFLOW (KAF)1028149769
17NOXM8CLARK FORK-NOXON RAPIDS DAM10-20-2014INFLOW (KAF)2684350477
18CABI1CLARK FORK-CABINET GORGE DAM10-20-2014INFLOW (KAF)2946365781
19PRTI1PRIEST-NEAR PRIEST RIVER10-20-2014DISCHARGE (KAF)20323686
20ALFW1PEND OREILLE-ALBENI FALLS DAM10-20-2014INFLOW (KAF)3063426772
21HOPI1PEND OREILLE-PEND OREILLE LAKE NR HOPE10-20-2014LAKE ELEVATION (FT)MMM
22COEI1COEUR D ALENE-COEUR D ALENE LAKE10-20-2014INFLOW (KAF)27968141
23SPOW1SPOKANE-AT SPOKANE10-20-2014DISCHARGE (KAF)355MM
24LLKW1SPOKANE-AT LONGLAKE10-20-2014INFLOW (KAF)539114347
25SATI1ST MARIES-NEAR SANTA10-20-2014DISCHARGE (KAF)163348
26SJMI1ST JOE-AT ST MARIES10-20-2014STAGE (FT)MMM
27CIBW1COLUMBIA-AT INTL BOUNDARY10-20-2014DISCHARGE (KAF)18009MM
28LAUW1KETTLE-AT LAURIER10-20-2014DISCHARGE (KAF)235125187
29GCDW1COLUMBIA-GRAND COULEE DAM10-20-2014INFLOW (KAF)1882817241109
30CHJW1COLUMBIA-CHIEF JOSEPH DAM10-20-2014INFLOW (KAF)210072136498
31TONW1OKANOGAN-NEAR TONASKET10-20-2014DISCHARGE (KAF)308280110
32PATW1METHOW-NEAR PATEROS10-20-2014DISCHARGE (KAF)13898140
33WELW1COLUMBIA-WELLS DAM10-20-2014INFLOW (KAF)214522173699
34CHDW1CHELAN-LAKE CHELAN DAM10-20-2014INFLOW (KAF)400157254
35RRHW1COLUMBIA-ROCKY REACH DAM10-20-2014INFLOW (KAF)220972222199
36ARDW1ENTIAT-NEAR ARDENVOIR10-20-2014DISCHARGE (KAF)5122232
37PESW1WENATCHEE-AT PESHASTIN10-20-2014DISCHARGE (KAF)485297163
38WANW1COLUMBIA-WANAPUM DAM10-20-2014INFLOW (KAF)2258219677115
39PRWW1COLUMBIA-PRIEST RAPIDS DAM10-20-2014INFLOW (KAF)2258020039113
40KEDW1YAKIMA-KEECHELUS LAKE10-20-2014INFLOW (KAF)5452105
41KADW1KACHESS-KACHESS DAM10-20-2014INFLOW (KAF)394585
42EASW1YAKIMA-AT EASTON10-20-2014DISCHARGE (KAF)7967118
43CLUW1CLE ELUM-CLE ELUM LAKE10-20-2014INFLOW (KAF)110104106
44TNAW1TEANAWAY-BELOW FORKS10-20-2014DISCHARGE (KAF)284070
45UMTW1YAKIMA-AT UMTANUM10-20-2014DISCHARGE (KAF)271244111
46BUDW1BUMPING-BUMPING LAKE DAM10-20-2014INFLOW (KAF)343695
47CLFW1NACHES-NEAR CLIFFDEL10-20-2014DISCHARGE (KAF)9010487
48RILW1TIETON-RIMROCK LAKE NEAR RIMROCK10-20-2014INFLOW (KAF)446766
49NACW1NACHES-NEAR NACHES10-20-2014DISCHARGE (KAF)12778164
50PARW1YAKIMA-NEAR PARKER10-20-2014DISCHARGE (KAF)27746959
51KIOW1YAKIMA-AT KIONA10-20-2014DISCHARGE (KAF)51869974
52IPDI1HENRYS FORK-ISLAND PARK DAM10-20-2014INFLOW (KAF)8211671
53CHEI1FALLS-NEAR CHESTER10-20-2014DISCHARGE (KAF)136112121
54ANTI1HENRYS FORK-AT ST. ANTHONY10-20-2014DISCHARGE (KAF)30534189
55TEAI1TETON-NEAR ST. ANTHONY10-20-2014DISCHARGE (KAF)103103100
56REXI1HENRYS FORK-AT REXBURG10-20-2014DISCHARGE (KAF)41943097
57JLKW4SNAKE-JACKSON LAKE AT DAM10-20-2014INFLOW (KAF)10611394
58JKSW4SNAKE-NEAR JACKSON10-20-2014DISCHARGE (KAF)407309132
59ALPW4SNAKE-NEAR ALPINE10-20-2014DISCHARGE (KAF)494388127
60PLDI1SF SNAKE-PALISADES DAM10-20-2014INFLOW (KAF)714627114
61HEII1SNAKE-NEAR HEISE10-20-2014DISCHARGE (KAF)763590129
62RIDI1WILLOW CREEK-RIRIE DAM10-20-2014INFLOW (KAF)6877
63SIFI1SNAKE-AB EAGLE ROCK NR IDAHO FALLS10-20-2014DISCHARGE (KAF)1004815123
64SHYI1SNAKE-NEAR SHELLEY10-20-2014DISCHARGE (KAF)1008801126
65SNAI1SNAKE-AT BLACKFOOT10-20-2014DISCHARGE (KAF)925730127
66BFTI1SNAKE-NEAR BLACKFOOT10-20-2014DISCHARGE (KAF)942785120
67PIHI1PORTNEUF-AT POCATELLO10-20-2014DISCHARGE (KAF)436269
68AFRI1SNAKE-AMERICAN FALLS RESERVOIR10-20-2014INFLOW (KAF)16281471111
69MILI1SNAKE-AT MILNER10-20-2014DISCHARGE (KAF)13456424
70HOTI1BRUNEAU-NEAR HOT SPRINGS10-20-2014DISCHARGE (KAF)222880
71SWAI1SNAKE-BELOW SWAN FALLS10-20-2014DISCHARGE (KAF)1685255466
72HWRI1BIG LOST-AT HOWELL RANCH NEAR CHILLY10-20-2014DISCHARGE (KAF)162178
73MACI1BIG LOST-MACKAY RESERVOIR NEAR MACKAY10-20-2014INFLOW (KAF)295528
74HALI1BIG WOOD-AT HAILEY10-20-2014DISCHARGE (KAF)283972
75MAGI1BIG WOOD-MAGIC DAM10-20-2014INFLOW (KAF)152755
76LWRI1LITTLE WOOD-LITTLE WOOD DAM10-20-2014INFLOW (KAF)81553
77OWYO3OWYHEE-BELOW OWYHEE DAM10-20-2014INFLOW (KAF)518262
78ARAI1SF BOISE-ANDERSON RANCH DAM10-20-2014INFLOW (KAF)697492
79LUCI1BOISE-LUCKY PEAK DAM10-20-2014INFLOW (KAF)81MM
80BIGI1BOISE-AT GLENWOOD BRIDGE10-20-2014DISCHARGE (KAF)6836191
81PARI1BOISE-NEAR PARMA10-20-2014DISCHARGE (KAF)213208102
82WRMO3MALHEUR-WARM SPRINGS DAM10-20-2014INFLOW (KAF)152268
83BERO3MALHEUR-AGENCY VALLEY DAM10-20-2014INFLOW (KAF)151695
84BULO3BULLY CREEK-BULLY CREEK DAM10-20-2014INFLOW (KAF)1259
85VALO3MALHEUR-NEAR VALE10-20-2014DISCHARGE (KAF)132650
86CSDI1NF PAYETTE-CASCADE DAM10-20-2014INFLOW (KAF)679472
87DEDI1DEADWOOD-NEAR LOWMAN10-20-2014INFLOW (KAF)171992
88EMMI1PAYETTE-NEAR EMMETT10-20-2014DISCHARGE (KAF)23634868
89WSRI1WEISER-NEAR WEISER10-20-2014DISCHARGE (KAF)277834
90WEII1SNAKE-AT WEISER10-20-2014DISCHARGE (KAF)2430361767
91BRNI1SNAKE-BROWNLEE DAM10-20-2014INFLOW (KAF)2601372470
92WHBI1SALMON-AT WHITEBIRD10-20-2014DISCHARGE (KAF)955106989
93TRYO3GRANDE RONDE-TROY10-20-2014DISCHARGE (KAF)20329768
94ANAW1SNAKE-NEAR ANATONE10-20-2014DISCHARGE (KAF)3873566668
95ORFI1CLEARWATER-AT OROFINO10-20-2014DISCHARGE (KAF)40466661
96DWRI1NF CLEARWATER-DWORSHAK DAM10-20-2014INFLOW (KAF)28251355
97SPDI1CLEARWATER-AT SPALDING10-20-2014DISCHARGE (KAF)841159353
98LGDW1SNAKE-LOWER GRANITE DAM10-20-2014INFLOW (KAF)4715746963
99LGSW1SNAKE-LITTLE GOOSE DAM10-20-2014INFLOW (KAF)4715752163
100LMNW1SNAKE-LOWER MONUMENTAL DAM10-20-2014INFLOW (KAF)4765761063
101IHDW1SNAKE-ICE HARBOR DAM10-20-2014INFLOW (KAF)4765752763
102TCHW1WALLA WALLA-NEAR TOUCHET10-20-2014DISCHARGE (KAF)10511591
103MCDW1COLUMBIA-MCNARY DAM10-20-2014INFLOW (KAF)279302955694
104GIBO3UMATILLA-NEAR GIBBON10-20-2014DISCHARGE (KAF)213363
105PDTO3UMATILLA-AT PENDLETON10-20-2014DISCHARGE (KAF)577873
106MYKO3MCKAY CREEK-NEAR PILOT ROCK10-20-2014DISCHARGE (KAF)141785
107UMAO3UMATILLA-NEAR UMATILLA10-20-2014DISCHARGE (KAF)9682117
108MONO3NF JOHN DAY-AT MONUMENT10-20-2014DISCHARGE (KAF)6610662
109SERO3JOHN DAY-AT SERVICE CK10-20-2014DISCHARGE (KAF)12819765
110JDAO3COLUMBIA-JOHN DAY DAM10-20-2014INFLOW (KAF)290593053595
111MODO3DESCHUTES-AT MOODY NR BIGGS10-20-2014DISCHARGE (KAF)1379138899
112TDAO3COLUMBIA-THE DALLES DAM10-20-2014INFLOW (KAF)297873412987
113PITW1KLICKITAT-NEAR PITT10-20-2014DISCHARGE (KAF)25327891
114HODO3HOOD-NEAR TUCKER BRIDGE10-20-2014DISCHARGE (KAF)333228146
115UNDW1WHITE SALMON-NEAR UNDERWOOD10-20-2014DISCHARGE (KAF)277236117
116BONO3COLUMBIA-BONNEVILLE DAM10-20-2014INFLOW (KAF)30640MM